Location: ??
(30.4792°N, 114.2544°E)
Time: 00:17:02
(UTC+00:00)

Daily predictions for brighter satellites

Satellite Brightness Start Highest point End
(mag) Time Altitude Azimuth Time Altitude Azimuth Time Altitude Azimuth
Meteor 2-4 Rocket 3.6 11:42:52 10° S 11:48:12 76° E 11:53:33 10° N
COSMOS 2406 3.6 11:43:35 10° NNW 11:49:19 69° WSW 11:54:58 10° S
STARLINK-1116 3.9 11:45:17 10° NNW 11:49:20 55° NE 11:53:23 10° SE
Cosmos 2082 Rocket 2.8 11:44:31 10° N 11:49:53 40° ENE 11:55:10 10° SE
CZ-4 R/B 4.0 11:49:15 10° SSW 11:52:30 22° W 11:55:46 10° NW
STARLINK-1320 4.2 11:52:03 10° S 11:54:28 21° SE 11:56:52 10° ENE
STARLINK-1322 4.1 11:52:24 10° S 11:54:49 21° SE 11:57:15 10° ENE
STARLINK-1324 4.1 11:52:42 10° S 11:55:08 21° SE 11:57:34 10° ENE
STARLINK-1294 4.1 11:53:03 10° S 11:55:27 21° SE 11:57:53 10° ENE
STARLINK-1261 4.1 11:53:23 10° S 11:55:50 21° SE 11:58:17 10° ENE
STARLINK-1325 4.1 11:53:42 10° S 11:56:10 22° SE 11:58:39 10° ENE
STARLINK-1333 4.1 11:54:03 10° S 11:56:31 22° SE 11:59:00 10° ENE
STARLINK-1334 4.1 11:54:19 10° S 11:56:49 22° SE 11:59:18 10° ENE
STARLINK-1326 4.1 11:54:38 10° S 11:57:08 22° SE 11:59:38 10° ENE
